Visibility
15.0 15.0 15.0 15.0 15.0 15.0 15.0 15.0 15.0 15.0 15.0 15.0 15.0 15.0 15.0 15.0 15.0 15.0 15.0 15.0 15.0 15.0 15.0 15.0 15.0 15.0 15.0 13.6 15.0 15.0 15.0 15.0 0.3 15.0 15.0 15.0 15.0 15.0 8.0 6.8 15.0 15.0 15.0
15.0 15.0 15.0 15.0 15.0 15.0 15.0 15.0 15.0 15.0 15.0 15.0 15.0 15.0 15.0 15.0 15.0 15.0 15.0 15.0 15.0 15.0 15.0 15.0 15.0 15.0 11.3 15.0 15.0 15.0 15.0 12.1 15.0 15.0 15.0 15.0 15.0 15.0 4.2 15.0 15.0 15.0 15.0
15.0 15.0 15.0 15.0 15.0 15.0 15.0 15.0 15.0 15.0 15.0 15.0 15.0 15.0 15.0 15.0 15.0 15.0 15.0 15.0 15.0 15.0 15.0 15.0 14.2 14.6 15.0 15.0 15.0 15.0 15.0 15.0 15.0 13.9 1.7 14.8 9.4 15.0 14.9 15.0 15.0 15.0 15.0
15.0 15.0 15.0 15.0 15.0 15.0 15.0 15.0 15.0 15.0 15.0 15.0 15.0 15.0 15.0 15.0 15.0 15.0 15.0 15.0 15.0 15.0 14.9 15.0 15.0 5.6 15.0 15.0 15.0 8.8 15.0 1.6 1.9 12.6 12.3 14.7 15.0 15.0 15.0 15.0 15.0 15.0 15.0
15.0 15.0 15.0 15.0 15.0 15.0 15.0 15.0 15.0 15.0 15.0 15.0 15.0 15.0 15.0 15.0 15.0 15.0 15.0 15.0 15.0 15.0 15.0 13.5 15.0 8.1 15.0 11.2 12.3 12.1 15.0 0.4 7.4 7.3 15.0 6.1 15.0 13.5 12.4 15.0 15.0 15.0 15.0
15.0 15.0 15.0 15.0 15.0 15.0 15.0 15.0 15.0 15.0 15.0 15.0 15.0 15.0 15.0 15.0 15.0 15.0 15.0 15.0 15.0 15.0 15.0 15.0 15.0 0.6 0.2 0.7 10.9 14.2 15.0 10.6 1.3 15.0 15.0 5.3 10.5 15.0 15.0 15.0 15.0 15.0 15.0
15.0 15.0 15.0 15.0 15.0 15.0 15.0 15.0 15.0 15.0 15.0 15.0 15.0 15.0 15.0 15.0 15.0 15.0 9.1 15.0 15.0 15.0 15.0 15.0 7.3 8.3 0.7 2.4 3.5 14.6 10.9 13.9 15.0 14.9 3.5 8.0 15.0 15.0 15.0 15.0 15.0 15.0 15.0
15.0 15.0 15.0 15.0 15.0 15.0 15.0 15.0 15.0 15.0 15.0 15.0 15.0 15.0 15.0 15.0 15.0 8.6 0.1 15.0 15.0 7.0 7.3 4.7 0.1 0.1 6.6 5.3 5.3 3.9 2.6 12.5 13.7 4.6 5.9 2.0 13.9 15.0 15.0 15.0 15.0 15.0 15.0
15.0 15.0 15.0 15.0 15.0 15.0 15.0 15.0 15.0 15.0 15.0 15.0 15.0 15.0 15.0 14.0 0.0 0.0 0.0 0.1 0.1 0.2 12.4 11.2 8.2 12.0 4.3 14.2 14.1 2.4 1.8 0.3 3.7 15.0 7.0 6.6 7.1 10.2 15.0 15.0 14.4 9.9 15.0
15.0 15.0 15.0 15.0 15.0 15.0 15.0 15.0 15.0 15.0 15.0 15.0 0.7 0.3 0.1 0.1 0.1 0.1 0.4 0.5 0.2 0.2 0.5 2.1 3.9 6.0 5.3 13.1 15.0 11.4 15.0 2.9 1.0 1.5 11.0 5.8 6.9 15.0 13.4 7.4 11.1 15.0 14.7
15.0 15.0 15.0 15.0 15.0 15.0 15.0 15.0 15.0 15.0 3.8 0.2 0.1 0.4 0.3 4.6 1.4 8.5 14.3 12.1 6.1 2.0 1.4 0.4 0.4 4.4 5.0 6.3 6.1 3.2 0.2 0.1 0.7 3.9 1.6 15.0 15.0 15.0 15.0 10.3 4.2 8.3 11.8
15.0 15.0 15.0 15.0 15.0 15.0 15.0 15.0 15.0 11.3 0.2 0.1 0.1 0.1 1.1 15.0 15.0 11.1 9.2 13.6 6.8 2.9 1.6 1.0 0.5 0.7 0.4 0.1 0.1 0.1 0.9 1.4 8.5 11.7 15.0 12.6 12.9 15.0 15.0 15.0 15.0 15.0 15.0
15.0 15.0 15.0 15.0 15.0 15.0 15.0 0.8 1.9 9.9 0.2 0.2 0.7 8.6 0.9 0.7 3.8 5.0 7.1 4.8 3.7 6.2 12.4 1.3 0.3 0.2 0.2 0.1 0.3 2.1 13.8 15.0 15.0 15.0 15.0 15.0 15.0 15.0 15.0 15.0 15.0 15.0 15.0
2.1 1.3 15.0 15.0 15.0 15.0 15.0 15.0 15.0 15.0 5.0 2.7 1.1 2.9 1.6 3.3 3.9 3.2 1.1 1.0 1.5 0.5 0.1 0.1 0.1 0.1 0.2 0.6 8.5 1.8 4.0 15.0 14.8 0.8 0.6 9.0 15.0 15.0 15.0 15.0 15.0 15.0 15.0
11.4 14.3 12.5 13.9 2.7 3.4 1.9 2.4 0.5 3.4 2.2 1.2 1.6 3.8 0.7 0.6 0.2 0.2 0.3 0.2 0.1 0.1 0.1 0.2 0.1 0.2 0.3 6.9 14.2 7.9 5.7 13.4 6.4 6.1 10.2 10.9 15.0 15.0 15.0 15.0 15.0 15.0 15.0
2.0 1.1 1.7 0.9 0.6 1.1 1.1 0.8 0.5 0.7 0.7 0.4 0.4 0.6 0.1 0.1 0.1 0.1 0.1 0.1 0.1 0.1 0.7 10.0 3.7 2.3 0.8 0.4 0.4 2.9 10.7 12.2 15.0 15.0 15.0 15.0 13.8 11.8 13.1 14.5 15.0 14.5 7.2
0.3 0.5 1.6 0.5 0.5 0.5 0.5 0.8 0.2 0.1 0.1 0.1 0.1 0.1 0.1 0.1 0.1 0.1 0.1 0.1 0.1 0.2 0.3 0.2 0.1 0.1 0.2 1.8 12.4 15.0 14.1 10.2 15.0 12.2 14.5 10.5 9.2 11.6 14.8 12.2 15.0 15.0 13.8
0.2 0.4 0.6 0.6 0.2 0.1 0.1 0.1 0.1 0.1 0.1 0.1 0.1 0.1 0.1 0.1 0.1 0.1 0.1 0.4 0.3 0.3 0.3 0.3 0.3 0.6 15.0 15.0 15.0 15.0 15.0 15.0 8.4 14.6 14.9 8.9 8.4 7.1 7.3 6.7 9.9 6.1 5.9
0.1 0.1 0.1 0.1 0.1 0.1 0.2 0.1 0.2 0.2 0.1 0.1 0.1 0.2 0.2 0.4 0.4 0.4 0.5 0.2 0.2 0.2 3.5 15.0 15.0 15.0 15.0 15.0 8.6 6.8 10.0 8.7 12.6 8.6 10.1 7.4 7.3 7.8 7.0 7.9 7.1 10.8 7.3
0.1 0.1 0.1 0.1 0.1 0.1 0.3 0.3 0.3 0.3 0.2 0.2 0.1 0.1 0.2 11.7 1.1 1.4 4.2 7.3 15.0 15.0 15.0 15.0 15.0 15.0 13.6 14.1 12.8 13.4 11.1 14.3 15.0 13.8 13.1 10.2 6.3 6.2 6.6 6.9 6.3 12.8 5.8
0.1 0.1 0.2 0.4 0.4 0.6 1.4 1.7 1.7 1.2 0.4 0.2 0.2 2.1 15.0 14.2 7.9 12.9 14.8 15.0 15.0 15.0 12.8 15.0 14.0 14.0 15.0 15.0 15.0 11.4 12.1 10.1 9.2 10.3 9.7 9.6 9.0 7.9 7.3 5.3 5.7 7.7 8.5
0.5 0.7 1.3 0.8 5.5 10.4 10.8 8.1 11.9 9.9 9.2 6.4 13.1 15.0 15.0 15.0 15.0 15.0 14.8 10.6 9.9 13.9 15.0 14.1 12.5 14.1 13.2 11.0 10.4 9.1 10.5 10.7 10.8 10.9 10.5 12.0 13.3 10.4 7.4 7.3 6.6 5.6 6.0
15.0 15.0 14.5 14.3 14.6 15.0 14.8 13.7 13.3 14.1 14.0 15.0 15.0 15.0 15.0 13.5 14.8 12.5 11.7 9.4 10.9 9.8 10.7 10.9 10.7 14.0 12.1 12.6 11.2 12.1 12.2 11.8 12.0 12.5 12.1 11.8 11.9 9.9 9.6 7.9 5.4 1.2 1.6
15.0 15.0 15.0 15.0 15.0 15.0 14.4 14.6 15.0 15.0 15.0 13.5 11.2 12.3 10.1 9.4 8.5 10.1 9.0 10.0 10.5 9.7 9.4 12.1 13.5 15.0 15.0 15.0 13.2 14.6 15.0 15.0 15.0 15.0 11.5 2.6 6.8 13.1 7.8 5.0 7.4 5.1 2.2
15.0 15.0 15.0 15.0 14.6 13.4 13.8 15.0 13.8 13.7 11.6 9.5 8.5 9.3 10.0 9.6 9.8 8.7 9.0 12.7 15.0 14.6 15.0 14.9 12.5 14.9 15.0 15.0 15.0 15.0 3.3 4.0 15.0 15.0 14.2 7.5 3.9 3.1 3.2 2.8 2.2 1.9 1.4
15.0 15.0 14.9 15.0 13.9 13.0 11.1 11.4 10.6 11.2 10.4 9.0 9.0 8.5 10.9 13.6 10.9 11.1 13.4 14.2 15.0 15.0 15.0 13.0 15.0 15.0 15.0 15.0 13.1 2.6 15.0 15.0 14.1 13.4 8.0 4.7 2.1 2.3 2.5 0.9 2.9 4.2 2.3